Regional Weather Roundup
Issued by NWS

Home | Current Version | Previous Version | Text Only | Print | Product List | Glossary On
Versions: 1 2 3 4 5 6 7 8 9 10 11 12 13 14 15 16 17 18 19 20 21 22 23 24 25 26 27 28 29 30 31 32 33 34 35 36 37 38 39 40 41 42 43 44 45 46 47 48 49 50
000
ASUS43 KTOP 261108
RWRKS

WEATHER ROUNDUP FOR KANSAS
NATIONAL WEATHER SERVICE GOODLAND KS
600 AM CDT SAT JUL 26 2014

NOTE:  "FAIR" INDICATES FEW OR NO CLOUDS BELOW 12,000 FEET WITH NO
SIGNIFICANT WEATHER AND/OR OBSTRUCTIONS TO VISIBILITY.

KSZ001>006-013>018-027>032-041>047-261200-
NORTHWEST KANSAS

CITY           SKY/WX    TMP DP  RH WIND       PRES   REMARKS
GOODLAND       MOCLDY    67  64  90 S8        29.97R
HAYS           CLOUDY    75  66  73 S9        29.82F
HILL CITY      CLOUDY    72  67  84 NW6       29.81S
RUSSELL        CLOUDY    77  67  71 S8        29.80F
$$

KSZ061>065-074>080-084>089-261200-
SOUTHWEST KANSAS

CITY           SKY/WX    TMP DP  RH WIND       PRES   REMARKS
DODGE CITY     CLOUDY    76  58  53 S8        29.89R
ELKHART          N/A     76  58  53 NW6         N/A
GARDEN CITY    CLOUDY    72  65  78 N7        29.90S
GREAT BEND     CLOUDY    75  61  60 S7        29.83S
LIBERAL        CLOUDY    81  52  36 SW12      29.94S
PRATT          CLOUDY    79  54  41 SW15      29.87S
$$

KSZ066>073-081>083-090>101-261200-
SOUTHEAST KANSAS

CITY           SKY/WX    TMP DP  RH WIND       PRES   REMARKS
CHANUTE        PTCLDY    75  71  87 S13       29.88R
COFFEYVILLE    PTCLDY    76  72  87 S10       29.89R
HUTCHINSON     MOCLDY    77  61  57 S13       29.83F
MEDICINE LODGE   N/A     77  60  55 S8        29.87R
NEWTON         MOCLDY    79  61  53 SW13      29.88S
PARSONS        PTCLDY    76  71  85 S8        29.89S
WICHITA INTL   MOCLDY    76  65  68 S12       29.85F
WICHITA JABRA  MOCLDY    78  65  63 S17G24    29.84F
WICHITA MCCONL MOCLDY    75  66  73 S15       29.86S
WINFIELD       MOCLDY    75  68  78 S8        29.89S
$$

KSZ007>012-019>026-033>040-048>060-102>105-261200-
NORTHEAST KANSAS

CITY           SKY/WX    TMP DP  RH WIND       PRES   REMARKS
CONCORDIA      CLOUDY    77  69  76 SW16      29.78R
EMPORIA        CLOUDY    80  65  59 S14       29.82F
LAWRENCE       PTCLDY    79  69  71 VRB5      29.80S
MANHATTAN      CLOUDY    84  62  47 SW15      29.76F
MARYSVILLE     CLOUDY    73  68  83 SE5       29.76F
OLATHE IND     CLEAR     78  71  79 S14       29.83S
OLATHE EXE     CLEAR     79  70  74 SW12G18   29.82S
SALINA         CLOUDY    81  59  47 SW13      29.80F
TOPEKA BILLARD MOCLDY    83  68  60 SW7       29.79S
TOPEKA FORBES  CLOUDY    80  67  64 S14       29.78F
$$


USA.gov is the U.S. government's official web portal to all federal, state and local government web resources and services.